Date String (YYYY-MM-DD hh:mm:ss) UTC,Instrument flags,Ambient pressure (hPa),Sample flow (lpm),Bypass flow (lpm),Sample temperature (°C),Ambient temperature (°C),ASC tube jacket temperature (°C),LED temperature (°C),Box temperature (°C),Sample RH (%),Mass concentration (μg/m³),Mass concentration (μg/m³)
DateTimeUTC,F1_M11,P_M11,Q1_M11,Q2_M11,T1_M11,T2_M11,T3_M11,T4_M11,T5_M11,U1_M11,X0_M11,X2_M11
2021-08-17 23:00:00,,0821.8,5.01,0.00,28.9,26.1,00.0,37.9,30.4,17.8,0027.82,0017.42
2021-08-17 23:01:00,,0821.8,4.98,0.00,28.8,25.8,00.0,37.9,30.3,18.2,0026.77,0017.44
2021-08-17 23:02:00,,0821.8,5.01,0.00,28.8,26.2,00.0,37.9,30.4,18.4,0026.39,0017.47
2021-08-17 23:03:00,,0821.8,4.99,0.00,28.8,26.6,00.0,37.9,30.5,19.2,0025.39,0017.51
2021-08-17 23:04:00,,0822.1,5.01,0.00,28.8,27.1,00.0,37.9,30.6,18.7,0024.83,0017.60
2021-08-17 23:05:00,,0821.9,5.00,0.00,28.9,27.4,00.0,37.9,30.8,18.3,0025.05,0017.68
2021-08-17 23:06:00,,0822.1,5.01,0.00,29.0,27.7,00.0,37.9,30.8,18.3,0025.57,0017.71
2021-08-17 23:07:00,,0822.3,5.00,0.00,28.9,26.5,00.0,37.9,30.5,18.7,0025.52,0017.73
2021-08-17 23:08:00,,0822.1,5.00,0.00,28.8,25.4,00.0,37.9,30.1,19.0,0025.79,0017.81
2021-08-17 23:09:00,,0822.0,4.99,0.00,28.7,25.8,00.0,37.9,30.3,19.5,0026.01,0017.83
2021-08-17 23:10:00,,0822.0,5.00,0.00,28.7,26.3,00.0,37.8,30.4,19.3,0025.77,0017.80
2021-08-17 23:11:00,,0822.0,5.00,0.00,28.7,26.7,00.0,37.8,30.5,19.7,0026.04,0017.83
2021-08-17 23:12:00,,0822.1,4.98,0.00,28.8,27.1,00.0,37.8,30.6,20.1,0026.16,0017.85
2021-08-17 23:13:00,,0822.2,5.01,0.00,28.9,27.5,00.0,37.8,30.8,21.1,0026.54,0017.91
2021-08-17 23:14:00,,0821.9,4.99,0.00,28.9,27.8,00.0,37.9,30.9,21.2,0027.24,0018.03
2021-08-17 23:15:00,,0821.8,5.00,0.00,29.0,28.0,00.0,37.9,31.0,20.6,0028.04,0018.10
2021-08-17 23:16:00,,0821.9,5.00,0.00,29.0,26.8,00.0,37.9,30.6,20.4,0028.27,0018.09
2021-08-17 23:17:00,,0822.0,5.00,0.00,28.8,25.6,00.0,37.9,30.2,20.1,0027.47,0018.09
2021-08-17 23:18:00,,0821.8,4.98,0.00,28.8,25.9,00.0,37.9,30.3,20.4,0027.00,0018.13
2021-08-17 23:19:00,,0821.9,5.02,0.00,28.8,26.4,00.0,37.9,30.4,19.4,0027.81,0018.14
2021-08-17 23:20:00,,0821.8,4.99,0.00,28.8,26.8,00.0,37.9,30.6,20.1,0027.99,0018.17
2021-08-17 23:21:00,,0821.8,5.00,0.00,28.8,27.2,00.0,37.9,30.7,19.6,0027.48,0018.19
2021-08-17 23:22:00,,0821.8,5.01,0.00,28.9,27.6,00.0,37.9,30.8,19.5,0027.30,0018.18
2021-08-17 23:23:00,,0821.7,4.99,0.00,29.0,27.9,00.0,37.9,30.9,19.1,0028.52,0018.14
2021-08-17 23:24:00,,0821.8,5.00,0.00,29.0,26.9,00.0,37.9,30.6,19.7,0028.82,0017.99
2021-08-17 23:25:00,,0821.8,5.00,0.00,28.8,25.7,00.0,37.9,30.2,19.6,0029.16,0017.79
2021-08-17 23:26:00,,0821.7,5.00,0.00,28.8,26.0,00.0,37.9,30.3,19.5,0029.04,0017.53
2021-08-17 23:27:00,,0821.7,5.00,0.00,28.8,26.4,00.0,37.9,30.4,19.3,0029.06,0017.35
2021-08-17 23:28:00,,0821.7,5.01,0.00,28.8,26.9,00.0,37.9,30.5,19.6,0030.95,0017.16
2021-08-17 23:29:00,,0821.7,4.99,0.00,28.9,27.3,00.0,37.9,30.7,19.6,0030.71,0016.94
2021-08-17 23:30:00,,0821.8,5.01,0.00,28.9,27.6,00.0,37.9,30.8,19.4,0030.14,0016.72
2021-08-17 23:31:00,,0821.8,5.00,0.00,29.0,27.9,00.0,37.9,30.9,19.9,0030.57,0016.52
2021-08-17 23:32:00,,0821.8,4.98,0.00,29.0,26.7,00.0,37.9,30.6,20.5,0035.38,0016.73
2021-08-17 23:33:00,,0821.8,5.00,0.00,28.8,25.6,00.0,37.9,30.2,20.8,0042.23,0017.20
2021-08-17 23:34:00,,0821.8,5.01,0.00,28.8,25.9,00.0,37.9,30.3,20.8,0047.30,0017.53
2021-08-17 23:35:00,,0821.9,5.00,0.00,28.8,26.3,00.0,37.9,30.4,20.7,0048.85,0017.80
2021-08-17 23:36:00,,0821.8,5.01,0.00,28.8,26.8,00.0,37.9,30.6,20.9,0049.76,0018.02
2021-08-17 23:37:00,,0821.8,5.01,0.00,28.8,27.2,00.0,37.9,30.7,21.1,0050.06,0018.19
2021-08-17 23:38:00,,0821.8,4.98,0.00,28.9,27.6,00.0,37.9,30.8,21.1,0049.98,0018.36
2021-08-17 23:39:00,,0821.8,5.01,0.00,29.0,27.9,00.0,37.9,30.9,20.8,0050.12,0018.61
2021-08-17 23:40:00,,0821.8,4.99,0.00,29.0,28.1,00.0,37.9,31.0,20.8,0051.57,0018.73
2021-08-17 23:41:00,,0821.8,4.99,0.00,29.0,27.0,00.0,37.9,30.7,20.8,0053.47,0018.94
2021-08-17 23:42:00,,0821.8,5.00,0.00,28.9,25.7,00.0,37.9,30.2,21.0,0052.90,0018.99
2021-08-17 23:43:00,,0821.8,5.01,0.00,28.8,25.9,00.0,37.9,30.3,21.3,0047.77,0018.61
2021-08-17 23:44:00,,0821.9,4.99,0.00,28.8,26.3,00.0,37.9,30.4,21.2,0042.77,0018.07
2021-08-17 23:45:00,,0821.8,5.00,0.00,28.8,26.7,00.0,37.9,30.5,21.3,0037.37,0017.62
2021-08-17 23:46:00,,0821.8,5.00,0.00,28.8,27.2,00.0,37.9,30.6,21.4,0035.05,0017.32
2021-08-17 23:47:00,,0821.9,4.99,0.00,28.9,27.5,00.0,37.9,30.8,21.6,0033.70,0017.03
2021-08-17 23:48:00,,0821.8,5.01,0.00,29.0,27.8,00.0,37.9,30.9,21.6,0032.37,0016.85
2021-08-17 23:49:00,,0821.8,4.99,0.00,29.0,28.1,00.0,37.9,31.0,21.9,0032.83,0016.79
2021-08-17 23:50:00,,0821.9,5.01,0.00,29.1,27.9,00.0,38.0,31.0,22.2,0032.23,0016.73
2021-08-17 23:51:00,,0821.8,4.99,0.00,29.0,26.2,00.0,37.9,30.4,22.6,0031.54,0016.77
2021-08-17 23:52:00,,0821.9,4.99,0.00,28.8,25.5,00.0,37.9,30.2,23.1,0030.12,0016.71
2021-08-17 23:53:00,,0821.8,5.01,0.00,28.8,25.9,00.0,37.9,30.3,23.3,0031.47,0016.83
2021-08-17 23:54:00,,0821.8,5.00,0.00,28.8,26.4,00.0,37.9,30.4,23.2,0031.80,0016.93
2021-08-17 23:55:00,,0821.7,5.00,0.00,28.8,26.9,00.0,37.9,30.6,22.9,0031.35,0017.00
2021-08-17 23:56:00,,0821.7,4.99,0.00,28.9,27.3,00.0,37.9,30.7,22.8,0031.11,0017.04
2021-08-17 23:57:00,,0821.7,5.00,0.00,28.9,27.6,00.0,37.9,30.8,22.8,0031.58,0017.11
2021-08-17 23:58:00,,0821.7,4.98,0.00,29.0,27.9,00.0,37.9,30.9,22.7,0031.55,0017.27
2021-08-17 23:59:00,,0821.7,5.01,0.00,29.1,28.1,00.0,38.0,31.0,22.6,0032.38,0017.32
